RH
52 69 71 64 67 63 76 62 66 68 52 53 64 77 74 56 64 82 87 82 84 69 63 80 87 86 80 67 70 68 67 69 64 69 55 88 81 71 77 68 52 56 51
53 60 70 62 83 97 85 69 64 59 48 55 48 64 59 51 69 71 68 74 75 77 59 58 66 63 76 82 67 72 80 74 84 70 70 54 66 66 58 83 94 88 90
40 48 62 67 72 100 100 90 82 71 54 56 59 51 54 66 55 51 63 71 99 96 83 73 82 67 95 83 70 87 71 78 78 64 65 69 63 63 65 70 59 69 68
49 48 54 68 84 93 98 100 92 76 70 66 63 63 58 61 66 57 72 96 98 81 96 91 88 100 100 88 88 77 72 96 100 100 90 92 96 96 67 84 83 60 64
67 61 61 71 72 85 82 96 100 100 100 98 95 76 76 75 80 67 61 76 77 81 81 70 74 80 91 99 95 93 81 74 89 86 77 81 90 86 67 46 46 48 41
89 75 62 68 65 75 73 73 64 65 90 79 78 98 100 95 77 81 77 74 77 74 74 76 71 66 55 70 85 99 100 90 82 93 100 97 95 52 49 68 62 46 39
58 75 88 70 80 75 86 83 72 63 68 70 82 65 72 70 74 100 100 94 96 88 89 92 89 87 78 58 72 62 64 58 96 95 95 91 75 83 63 36 45 40 37
72 76 78 67 76 51 46 49 49 58 76 42 43 72 71 71 96 70 89 100 100 100 100 100 100 100 100 92 63 58 65 70 71 69 72 75 75 64 69 72 54 42 35
85 68 59 56 56 50 38 58 100 100 99 77 57 46 70 71 73 89 83 92 100 100 98 100 100 100 100 100 100 98 70 80 96 82 83 79 76 77 87 78 73 64 51
56 68 80 75 63 64 68 100 100 100 100 100 100 70 62 90 90 92 75 65 99 96 100 100 100 100 100 100 100 100 100 100 100 100 100 100 100 88 99 95 63 77 66
68 84 71 79 84 99 85 78 100 100 100 98 100 99 78 49 61 87 70 49 84 54 42 55 54 67 60 76 76 94 100 98 98 95 93 89 84 97 100 100 99 84 78
85 78 71 94 91 95 87 95 83 70 89 86 94 98 98 51 46 58 97 79 62 37 96 95 77 48 38 36 43 47 43 42 38 49 86 96 85 52 70 70 73 56 61
83 89 98 84 78 70 83 97 98 100 95 100 96 99 100 98 55 67 73 86 64 50 57 54 56 62 60 47 29 31 46 92 90 78 68 66 80 72 54 47 50 61 67
100 100 87 84 83 69 80 89 77 98 87 97 100 76 55 63 100 72 62 81 100 100 100 100 100 100 100 87 85 72 59 58 88 94 97 93 98 86 97 77 76 60 45
96 99 97 92 93 85 89 80 95 90 96 100 91 51 46 100 100 83 100 100 100 89 90 77 80 97 90 75 83 85 96 100 80 95 100 100 100 100 100 100 100 69 65
51 65 60 65 73 73 72 85 81 65 57 75 70 73 100 96 100 100 100 100 100 100 88 100 99 98 93 97 100 100 100 92 100 100 82 92 84 89 76 96 85 69 66
70 46 38 52 56 58 64 92 73 83 100 100 97 97 100 100 79 88 100 93 88 100 100 100 100 100 82 67 73 76 46 53 59 82 98 77 84 81 77 81 72 79 97
100 100 100 100 87 72 81 81 96 99 73 100 100 100 100 100 100 100 100 100 90 80 76 82 99 100 89 91 76 86 81 69 81 79 76 81 78 77 77 62 75 90 96
100 100 100 100 100 100 100 100 100 100 97 91 100 100 100 100 100 100 97 100 100 100 96 88 83 88 98 100 100 100 79 100 98 99 97 94 100 97 100 100 100 100 95
100 100 100 100 100 100 100 97 96 100 91 100 100 99 88 100 100 100 100 100 100 100 100 100 99 89 93 97 85 97 100 100 100 100 88 97 100 100 100 100 100 100 100
74 70 99 100 99 87 100 91 100 100 100 99 91 100 100 100 100 100 100 85 100 100 100 100 100 100 100 100 100 100 100 98 100 99 97 100 100 99 97 100 100 100 100
25 77 87 79 80 92 85 97 83 100 98 97 100 100 87 81 100 100 100 100 100 100 100 100 100 100 100 100 95 96 99 100 100 100 100 100 100 100 100 89 70 66 50
21 20 17 17 21 42 72 90 95 98 100 100 100 100 100 100 100 98 96 99 100 100 98 88 100 98 94 100 100 100 100 100 100 98 80 82 77 68 50 39 30 20 16
25 24 23 22 21 18 16 25 52 62 63 66 72 67 68 76 92 100 100 100 95 97 90 94 85 84 79 84 91 89 88 87 78 75 60 39 41 38 31 13 11 14 18
32 31 30 29 27 24 21 19 18 16 16 17 17 17 16 15 13 17 32 49 51 42 34 34 32 32 35 38 43 37 26 21 23 31 28 15 12 10 10 9 8 9 10
27 26 25 23 22 21 21 21 21 20 20 19 19 18 17 16 15 14 13 12 12 12 11 11 11 11 11 10 10 10 10 10 10 9 8 7 7 8 8 8 8 9 10
Wind_Speed
8 7 8 6 5 7 8 9 9 9 8 7 6 6 9 12 14 12 10 11 12 12 11 11 12 13 15 17 20 20 22 23 21 25 28 28 31 28 25 24 27 27 28
12 7 6 5 3 5 8 11 12 10 11 9 6 6 6 4 4 5 4 3 5 4 4 6 7 8 9 8 10 13 13 16 16 20 20 23 26 30 30 26 23 21 22
17 12 8 8 7 6 5 10 13 14 12 9 8 7 7 6 4 3 3 2 4 6 3 4 6 3 2 6 6 6 9 11 13 13 15 16 19 23 22 25 26 28 28
22 20 17 10 10 11 10 11 14 15 16 14 14 14 11 8 6 4 6 5 7 8 8 8 11 12 11 11 11 10 10 8 6 9 13 14 19 21 22 19 22 26 27
30 27 23 22 19 16 13 12 13 14 16 15 17 20 19 16 13 9 6 5 8 8 9 11 12 14 13 15 16 17 17 17 15 13 18 18 20 17 17 17 21 24 26
37 35 31 30 27 25 22 21 20 19 22 23 21 23 24 21 20 17 17 18 15 13 9 11 14 19 18 18 16 16 20 22 21 17 21 22 25 24 19 15 17 22 26
44 40 38 36 35 33 30 29 27 27 24 24 27 28 27 37 34 33 25 24 24 23 20 25 25 21 22 28 27 25 23 25 23 28 25 27 26 27 24 18 16 19 25
52 46 46 44 41 41 34 34 31 31 36 34 37 37 34 34 37 38 38 38 37 36 36 37 34 30 35 27 35 38 35 35 34 35 35 36 36 35 32 30 32 35 35
55 53 51 48 44 40 38 35 33 41 44 44 41 41 42 43 46 45 42 42 42 42 45 46 44 45 43 39 40 38 42 43 41 37 39 44 45 45 41 41 47 44 43
60 58 57 55 49 44 43 43 43 46 54 50 48 48 49 50 48 59 52 49 49 52 49 48 48 48 54 56 54 43 45 49 49 50 49 52 50 49 50 48 48 52 53
70 66 63 59 55 54 50 49 48 48 55 59 57 60 57 57 61 58 61 60 59 59 56 57 56 62 66 64 60 61 63 64 62 60 59 53 53 56 55 57 57 63 67
77 74 72 64 60 61 61 61 62 64 71 75 67 66 67 64 61 63 62 63 63 63 63 67 72 73 67 65 65 68 65 62 63 66 67 66 63 63 62 63 65 65 68
81 79 75 75 71 70 65 65 67 67 70 77 75 72 72 77 70 68 69 71 68 68 71 77 76 74 73 72 68 71 71 75 74 74 76 77 78 74 73 72 73 73 75
87 81 83 83 77 76 70 72 71 74 79 83 77 79 78 72 67 68 68 70 73 71 67 76 82 79 87 83 82 82 83 82 81 81 82 80 86 94 90 87 84 82 83
93 92 84 81 79 78 77 77 76 77 82 88 89 85 77 65 73 71 72 75 80 78 79 82 88 91 92 91 89 90 89 88 88 88 86 91 95 95 93 93 90 91 91
94 94 91 91 88 85 84 84 82 85 86 85 86 81 77 78 79 85 82 83 83 86 86 90 92 94 93 93 94 96 98 99 97 98 98 100 96 99 104 101 98 104 103
93 96 96 97 98 94 92 87 89 83 83 85 86 87 92 93 88 90 93 90 90 94 96 96 96 102 105 107 104 104 104 100 103 103 109 104 102 105 106 109 112 111 104
92 95 91 96 91 91 94 95 91 92 88 97 96 94 97 103 101 100 98 98 98 101 104 108 110 113 115 113 111 111 109 106 108 109 110 116 112 113 116 118 114 115 116
103 104 98 97 100 99 101 101 101 101 103 98 103 105 105 108 112 108 107 110 109 109 110 114 118 119 114 117 114 116 117 116 117 117 116 117 121 119 120 118 122 123 129
120 112 113 105 104 104 102 103 104 106 107 106 109 107 113 117 117 118 114 118 117 117 118 120 123 128 130 127 126 121 121 121 120 119 128 123 123 130 131 139 144 144 149
122 122 125 122 114 117 116 109 111 110 110 114 118 123 121 120 124 125 124 129 133 137 137 137 131 130 134 136 139 135 134 131 136 144 138 138 139 139 145 152 158 154 155
121 127 130 131 131 126 123 116 117 119 121 118 120 124 121 127 135 136 138 138 139 140 141 143 143 141 144 143 141 141 145 146 151 150 146 150 156 160 163 165 167 169 172
118 119 121 126 130 131 132 133 129 124 125 129 131 129 135 137 138 141 140 140 140 141 143 144 149 152 150 150 150 153 160 160 158 158 160 162 165 167 167 169 169 166 159
112 114 117 120 124 127 129 136 141 143 145 147 147 148 148 151 149 151 150 152 154 157 154 156 159 162 163 164 167 171 172 169 171 175 174 173 173 179 176 171 163 156 149
89 94 98 103 108 114 121 126 131 137 140 142 144 146 146 150 154 159 164 168 171 172 172 174 175 175 177 177 180 183 183 179 177 177 173 166 160 153 144 138 133 128 124
61 64 69 74 80 86 92 96 100 105 111 116 122 128 133 139 143 147 150 153 157 159 160 160 160 161 160 160 158 154 149 143 138 134 130 128 125 122 118 116 113 110 108
Wind_Direction
158 168 191 207 192 177 164 151 152 151 133 129 107 106 112 127 117 110 99 94 88 77 76 67 64 54 59 63 65 63 65 57 59 54 55 48 47 43 40 42 49 49 46
193 190 201 228 236 182 201 192 178 183 168 159 155 156 148 138 165 148 149 133 88 78 79 59 62 71 66 46 45 54 57 52 49 50 45 40 43 34 39 35 29 34 33
218 221 224 229 252 265 240 211 203 198 206 200 200 213 216 207 224 212 218 251 303 343 305 310 342 343 346 34 25 33 41 55 45 39 34 29 27 24 26 29 23 22 22
224 228 236 228 244 256 259 235 218 215 212 214 224 214 215 208 201 226 255 256 276 294 297 308 313 315 318 306 305 319 346 341 343 4 2 11 4 5 12 13 14 16 10
228 226 228 236 240 241 249 241 242 246 249 249 233 217 218 219 217 195 213 239 250 280 295 327 323 312 308 302 298 290 301 306 314 309 334 343 348 346 354 359 1 360 1
225 232 231 234 237 243 253 261 262 258 255 256 261 253 258 247 244 238 232 236 253 264 262 288 301 314 310 295 293 298 300 302 290 312 308 308 326 331 334 328 332 343 347
230 231 235 238 242 246 248 257 264 260 262 271 264 270 271 258 263 255 244 237 253 261 255 281 284 286 295 305 287 288 294 292 287 291 296 302 305 304 313 319 316 328 331
243 240 237 239 241 246 245 245 254 257 263 267 269 273 280 281 262 250 255 255 258 262 269 275 272 269 285 277 291 294 296 295 296 287 289 296 298 298 299 307 308 311 319
241 245 242 241 244 245 244 255 243 262 267 260 264 267 268 277 282 276 266 260 258 267 268 270 271 273 279 270 277 274 288 291 290 291 293 293 288 289 287 293 300 304 305
238 242 242 246 247 247 244 251 249 250 254 262 261 263 265 267 272 271 273 272 263 270 273 273 273 273 278 278 279 269 279 284 284 287 291 298 293 288 283 289 294 293 298
239 241 244 245 245 247 244 244 239 247 261 258 261 262 261 265 265 271 272 271 271 272 274 271 271 278 280 276 277 275 275 279 284 280 284 290 288 287 282 284 285 295 293
241 242 245 243 245 247 249 243 243 245 254 256 255 257 264 266 262 266 264 270 270 271 273 272 272 276 274 271 271 274 276 281 282 283 285 285 286 291 283 284 280 291 291
246 244 244 246 247 247 249 244 241 248 252 249 253 259 262 267 264 267 268 272 265 265 265 273 277 278 275 276 282 280 284 285 285 286 287 286 283 284 283 284 286 287 286
248 249 249 250 252 253 251 249 250 243 249 251 255 262 264 264 263 263 261 262 260 260 262 262 268 267 270 275 276 280 284 282 282 283 283 283 284 283 282 280 284 285 290
246 248 250 252 251 251 252 254 252 251 253 254 259 264 262 254 259 262 258 258 255 259 258 259 260 263 267 272 272 273 277 277 276 278 278 281 278 277 280 281 282 287 291
246 247 250 253 253 254 254 253 253 257 260 257 263 260 257 252 252 256 255 256 258 258 258 257 258 259 263 266 266 267 270 273 273 273 275 277 276 277 278 278 284 286 291
253 254 253 253 255 256 255 252 259 256 255 254 257 255 256 252 249 250 252 252 256 257 257 257 258 259 261 265 266 268 273 273 276 272 273 273 273 277 279 281 284 288 282
242 245 245 247 248 253 250 253 252 249 255 257 256 255 256 253 250 252 252 253 253 256 258 258 258 260 263 264 267 267 269 271 276 275 276 274 272 274 280 281 282 283 282
239 242 240 242 247 250 249 251 254 251 256 254 254 252 256 257 253 255 256 256 257 258 260 263 264 264 264 265 264 268 271 271 274 273 275 276 274 278 277 278 279 278 283
243 244 243 244 246 251 245 252 250 250 252 254 250 253 258 257 254 254 257 261 261 261 260 264 266 268 268 266 266 266 268 268 269 270 277 272 275 277 280 286 284 282 287
244 245 247 249 251 249 253 251 253 248 249 255 253 251 256 256 255 253 256 261 262 263 265 266 263 263 266 267 267 268 270 270 273 278 275 273 274 275 278 282 286 283 285
247 246 248 250 253 251 251 253 253 248 253 254 254 254 255 258 255 255 257 259 260 262 264 262 265 264 266 266 268 267 270 270 272 273 272 272 280 282 283 288 287 286 287
252 253 254 254 255 254 255 255 252 251 251 252 254 256 255 258 257 258 257 259 260 263 263 265 263 265 268 267 265 269 273 275 274 276 279 280 281 284 287 288 287 286 286
256 257 257 258 258 257 258 257 257 258 259 261 261 263 263 263 263 259 260 262 263 265 265 266 268 269 271 272 273 275 276 278 278 278 280 284 284 281 282 284 285 283 282
260 261 262 262 262 261 261 261 261 260 261 262 264 264 265 265 266 265 265 266 267 270 271 271 271 272 272 272 273 275 279 279 278 279 281 281 281 282 282 282 281 281 280
261 263 264 265 265 265 265 265 266 266 266 265 266 266 266 267 267 268 269 269 270 271 272 273 273 274 274 275 276 277 278 278 279 279 279 279 280 280 280 280 281 280 280